Regional Weather Roundup
Issued by NWS

Home | Current Version | Previous Version | Text Only | Print | Product List | Glossary On
Versions: 1 2 3 4 5 6 7 8 9 10 11 12 13 14 15 16 17 18 19 20 21 22 23 24 25 26 27 28 29 30 31 32 33 34 35 36 37 38 39 40 41 42 43 44 45 46 47 48 49 50
790
ASUS43 KMPX 261501
RWRMN
WEATHER ROUNDUP FOR MINNESOTA
NATIONAL WEATHER SERVICE TWIN CITIES/CHANHASSEN MN
1000 AM CDT THU MAY 26 2016


NOTE: "FAIR" INDICATES FEW OR NO CLOUDS BELOW 12,000 FEET WITH NO
SIGNIFICANT WEATHER AND/OR OBSTRUCTIONS TO VISIBILITY. N/A MEANS
CURRENT SKY AND/OR WEATHER CONDITIONS ARE NOT AVAILABLE.

MNZ060>063-068>070-261600-
   Twin Cities Metro

CITY           SKY/WX    TMP DP  RH WIND       PRES   REMARKS
TWIN CITIES    MOSUNNY   69  57  65 SW12      29.81S
ST PAUL        SUNNY     69  57  65 W9        29.80F
CRYSTAL        SUNNY     70  55  59 W9        29.78F
BLAINE         MOSUNNY   72  57  60 SW7       29.79F
EDEN PRAIRIE   SUNNY     69  58  67 SW8       29.80S
SOUTH ST PAUL  SUNNY     69  57  64 SW6       29.80S
LAKE ELMO      FAIR      70  59  68 SW6       29.81F
$$
MNZ001>005-007-008-013>017-022>024-027-028-261600-
   Northwest Minnesota

CITY           SKY/WX    TMP DP  RH WIND       PRES   REMARKS
BEMIDJI        MOSUNNY   61  56  83 SW6       29.76S
HALLOCK        CLOUDY    61  55  82 W14G20    29.68S
ROSEAU         CLOUDY    63  55  77 SW10G17   29.70S
WARROAD        CLOUDY    61  57  88 S7        29.71F
THIEF RVR FALL CLOUDY    63  54  72 W10       29.74S
CROOKSTON      CLOUDY    61  57  88 W12       29.74S
FOSSTON        PTSUNNY   63  57  82 SW7       29.75S
DETROIT LAKES  SUNNY     63  54  72 S10       29.78S
MOORHEAD       CLOUDY    59  57  94 W13       29.78R FOG
PARK RAPIDS    SUNNY     66  56  70 SW5       29.76F
MAHNOMEN       FAIR      61  56  84 SW8       29.75S
$$
MNZ006-009>011-018-025>026-261600-
   North Central Minnesota

CITY           SKY/WX    TMP DP  RH WIND       PRES   REMARKS
BAUDETTE       CLOUDY    61  56  83 S6        29.72F
FLAG ISLAND    CLOUDY    57  55  94 S18       29.69S
INTL FALLS     CLOUDY    58  55  90 S3        29.76S
WASKISH        CLOUDY    61  57  88 SW8       29.75S
BIG FORK       CLOUDY    59  55  88 CALM      29.77S FOG
LONGVILLE      CLOUDY    63  59  88 S5        29.77R
GRAND RAPIDS   CLOUDY    55  54  96 E5        29.80S
CRANE LAKE     CLOUDY    57  55  94 S5        29.80R FOG
ORR            CLOUDY    55  52  88 S3        29.76S
COOK           CLOUDY    57  55  94 SW6       29.79S
WALKER         CLOUDY    61  55  82 SW3       29.77R
$$
MNZ012-019>021-037-261600-
   Northeast Minnesota

CITY           SKY/WX    TMP DP  RH WIND       PRES   REMARKS
DULUTH         FOG       52  51  97 SE5       29.80F VSB 1/4
ELY            CLOUDY    61  54  77 S5        29.79S
HIBBING        CLOUDY    52  52 100 S3        29.79F FOG
EVELETH        CLOUDY    57  55  94 S5        29.80F FOG
DULUTH HARBOR  CLOUDY    45  43  93 NE6       29.82F FOG
TWO HARBORS    HAZE      55  50  82 E3        29.79F VSB 1
SILVER BAY     CLOUDY    52  52 100 E5        29.80F VSB 3/4
GRAND MARAIS     N/A     46  44  93 E5        29.82F
G MARAIS ARPRT CLOUDY    55  52  88 E3        29.83S FOG
$$
MNZ029>031-032-039>041-046>048-054>057-064-261600-
   West Central Minnesota

CITY           SKY/WX    TMP DP  RH WIND       PRES   REMARKS
FERGUS FALLS   CLOUDY    59  57  94 W13       29.78R
WHEATON        SUNNY     70  54  56 W13G18    29.82R
MORRIS         SUNNY     66  54  63 W15       29.81R
ALEXANDRIA     SUNNY     65  54  67 W8        29.80S
ELBOW LAKE     FAIR      63  55  75 SW14      29.81S
WADENA         SUNNY     64  54  68 W5        29.77F
GLENWOOD       SUNNY     64  55  72 W8        29.81S
APPLETON       SUNNY     66  52  59 W12       29.82S
BENSON         SUNNY     66  54  63 NW10      29.82R
ORTONVILLE     SUNNY     68  48  49 W8        29.82S
MADISON        SUNNY     66  52  59 NW12      29.83F
WILLMAR        FAIR      68  57  68 W12       29.83S
$$
MNZ033>034-036-042>043-049>051-058-059-261600-
   Central Minnesota

CITY           SKY/WX    TMP DP  RH WIND       PRES   REMARKS
ST CLOUD       SUNNY     68  56  65 VRB7      29.78F
SAUK CENTRE    FAIR      65  56  71 W8        29.80S
PAYNESVILLE    SUNNY     66  58  73 W14       29.82R
AITKIN         CLOUDY    64  57  77 SW3       29.77R
PINE RIVER     PTSUNNY   64  59  82 SW3       29.81S
BRAINERD       CLOUDY    65  58  78 CALM      29.78S
STAPLES        MOSUNNY   64  55  72 W3        29.78S
LONG PRAIRIE   FAIR      63  55  77 SW6       29.80S
LITTLE FALLS   SUNNY     64  55  72 W6        29.79S
LITCHFIELD     SUNNY     70  61  73 W6        29.82R
BUFFALO        SUNNY     68  57  68 W7        29.81S
MAPLE LAKE     SUNNY     68  59  73 W8        29.81S
HUTCHINSON     MOSUNNY   69  61  75 W15       29.83R
$$
MNZ037-044-045-052-053-261600-
   East Central Minnesota

CITY           SKY/WX    TMP DP  RH WIND       PRES   REMARKS
PRINCETON      SUNNY     70  63  78 SW5       29.78F
MORA           MOSUNNY   63  63 100 CALM      29.80S
CAMBRIDGE      CLOUDY    70  57  64 SW5       29.77F
RUSH CITY      PTSUNNY   69  60  73 SW6       29.79F
MOOSE LAKE     FOG       50  50 100 CALM      29.78F VSB 3/4
HINCKLEY       CLOUDY    61  61 100 CALM      29.79S
CLOQUET        FOG       50  48  93 CALM      29.80F VSB 1/2
MCGREGOR       CLOUDY    55  55 100 CALM      29.79S
$$
MNZ071>073-080-081-089-090-097-098-261600-
   Southwest Minnesota

CITY           SKY/WX    TMP DP  RH WIND       PRES   REMARKS
MONTEVIDEO     SUNNY     70  52  52 NW13      29.84S
GRANITE FALLS  SUNNY     70  51  50 W13       29.85R
CANBY          SUNNY     71  52  50 W8        29.85S
MARSHALL       SUNNY     69  47  45 NW12      29.84S
REDWOOD FALLS  SUNNY     69  53  56 NW10      29.83R
OLIVIA         SUNNY     70  55  60 W14       29.83R
PIPESTONE      SUNNY     66  48  52 N14       29.86S
WINDOM         SUNNY     70  52  52 CALM      29.87R
WORTHINGTON    SUNNY     67  52  58 N5        29.89R
JACKSON        SUNNY     68  52  56 CALM      29.88S
TRACY          SUNNY     70  49  47 NW10      29.86S
SLAYTON        SUNNY     68  44  42 NW14      29.87F
$$
MNZ065>067-074>077-082>085-091>093-261600-
   South Central Minnesota

CITY           SKY/WX    TMP DP  RH WIND       PRES   REMARKS
MANKATO        SUNNY     68  57  68 W13       29.84R
NEW ULM        SUNNY     68  55  64 W16G24    29.84R
ST JAMES       SUNNY     64  54  68 W9        29.87R
FAIRMONT       SUNNY     68  54  60 W13       29.87R
GLENCOE        SUNNY     70  61  73 W9        29.80F
FARIBAULT      SUNNY     68  61  77 SW10      29.83S
OWATONNA       SUNNY     70  57  64 SW17      29.84R
WASECA         SUNNY     66  59  77 SW15      29.86S
ALBERT LEA     SUNNY     68  59  73 SW12G18   29.86R
$$
MNZ078>079-086>088-094>096-261600-
   Southeast Minnesota

CITY           SKY/WX    TMP DP  RH WIND       PRES   REMARKS
ROCHESTER      SUNNY     69  61  75 W12       29.85S
RED WING       SUNNY     70  59  68 W7        29.80F
STANTON        SUNNY     70  59  68 SW10      29.81S
DODGE CENTER   SUNNY     68  61  77 SW17      29.85R
WINONA         CLOUDY    66  61  82 SW3       29.83F
AUSTIN         SUNNY     66  61  82 SW12      29.86R
PRESTON        SUNNY     68  59  74 W8        29.86
$$
ABBREVIATIONS USED IN REMARKS
   TC - TEMPERATURES IN CELSIUS
  WCI - WIND CHILL INDEX
   HX - HEAT INDEX
  VSB - VISIBILITY
$$




USA.gov is the U.S. government's official web portal to all federal, state and local government web resources and services.